GRIFEX (40379 NORAD) Tracking and Keplerian Element Data

This shows tracking and keplerian element data for the satellite.

Feedback or suggestion? Click here.




ElementValue
Catalog40379
NameGRIFEX
Epoch Orbit49596
Epoch Day12.95978708
Epoch Year2024
RAAN10.5121
Inclination99.0812
Eccentricity0.0032287
Argument of Perigee249.293
Mean Anonmoly110.4868
Mean Motion15.7721573
Decay Rate0.00222452
L11 40379U 15003D 24012.95978708 .00222452 00000+0 12873-2 0 9993
L22 40379 99.0812 10.5121 0032287 249.2930 110.4868 15.77215730495964



Live tracking and technical data element details for GRIFEX (NORAD 40379). GRIFEX can be tracked NOW for your location showing map with azimuth and elevation plus other details from your city location.







IsCatalogInMostPopularTable: catalog: 40379, numindb: 399
Update: records affected: 1



GetName: 40379 GRIFEX

Hit Count: updated at: Sat, 17 May 2025 09:39:59 GMT